Weather in Ivanivka

Ukraine / Kirovohrad Region     48°45′17″N   31°14′55″E
В апреле 2022 года жителям России запретили посещать сайт meteo.paraplan.net по решению Генеральной прокуратуры. Аудитория сайта уменьшилась в 10 раз. Владельцы сайта не видят смысла в поддержке погодного сервера в таких условиях. Сайт будет закрыт в октябре.
temp.,
°C
wind,
m/s
gust,
m/s
humid.,
%
clouds,
%
prec.,
mm/h
press.,
hPa
HPBL,
m
3 october, mon
mon300:00+11wnw71377100 0.2 10041328
03:00+10w81578100 0.6 10041004
06:00+10w7137697 0.0 1004746
09:00+11wsw81470100 0.0 1005834
12:00+12wsw8126728 0.1 10061254
15:00+14wsw91154100 0.6 10071787
18:00+12wsw81257100 0.1 10081577
21:00+11wsw8127293 0.1 1008919
4 october, tue
tue400:00+10sw81275100 0.1 10081182
03:00+10wsw71182100 0.4 10081020
06:00+9w5979100 0.8 1010528
09:00+9wsw61077100 0.8 1012908
12:00+11w71063100 0.1 10131401
15:00+12w81059100 0.4 10141573
18:00+11w61165100 0.1 1016974
21:00+10w4973100 0.3 1017527
5 october, wed
wed500:00+9wsw4108640 0.1 1019320
03:00+8wsw4109087 0.1 1020243
06:00+9w5118859 0.1 1021446
09:00+10wnw698136 0.1 1022572
12:00+13wnw676763 0.0 10231035
15:00+14nw6759100 0.0 10241159
18:00+12nw3463100 0.0 102575
21:00+11wnw2269100 0.0 102614
6 october, thu
thu600:00+11wsw337099 0.0 102644
03:00+10wsw2275100 0.0 102626
06:00+10sw3476100 0.0 102671
09:00+12wsw366694 0.0 1026222
12:00+17w4549100 0.0 1026599
15:00+19wsw563885 0.0 10241205
18:00+17wsw334999 0.0 102440
21:00+14w365999 0.0 102582
7 october, fri
fri700:00+12nw377899 0.0 1026140
03:00+11nnw389154 0.0 1027160
06:00+10nnw389571 0.0 1027182
09:00+12n587993 0.0 1028361
12:00+16n56485 0.0 1028890
15:00+18nne55390 0.0 10271182
18:00+14nne34535 0.0 102768
21:00+11ne34675 0.0 102765